Weather History for Litchfield, MN

Change the Weather History Date:

Sunday, April 14, 2013

  Actual Average Record
Temperature  
Mean Temperature 32 °F -  
Max Temperature 35 °F 54 °F 89 °F (2003)
Min Temperature 30 °F 33 °F 19 °F (2008)
Degree Days  
Heating Degree Days 32    
Moisture  
Dew Point 30 °F    
Average Humidity 92    
Maximum Humidity 100    
Minimum Humidity 80    
Precipitation  
Precipitation 0.00 in - - ()
Sea Level Pressure  
Sea Level Pressure 29.65 in    
Wind  
Wind Speed 10 mph (East)    
Max Wind Speed 23 mph    
Max Gust Speed 30 mph    
Visibility 7 miles    
Events Snow    
Averages and records for this station are not official NWS values.
T = Trace of Precipitation, MM = Missing Value Source: NWS Daily Summary

Daily Weather History Graph

Daily Weather History Graph

Search for Another Location

Airport:

Trip Planner

Search our weather history database for the weather conditions in past years. The results will help you decide how hot, cold, wet, or windy it might be!

Date:

Astronomy

Apr. 14, 2013 Rise Set
Actual Time 6:34 AM CDT 8:02 PM CDT
Civil Twilight 6:03 AM CDT 8:33 PM CDT
Nautical Twilight 5:26 AM CDT 9:10 PM CDT
Astronomical Twilight 4:47 AM CDT 9:50 PM CDT
Moon 9:04 AM CDT (4/14) No Moon Set
Length of Visible Light 14h 29m
Length of Day
13h 28m
Waxing Crescent, 17% of the Moon is Illuminated
Apr 14
Waxing Crescent
Apr 18
First Quarter
Apr 25
Full
May 2
Last Quarter
May 9
New

Hourly Weather History & Observations

Time (CDT) Temp. Windchill Dew Point Humidity Pressure Visibility Wind Dir Wind Speed Gust Speed Precip Events Conditions
12:12 AM 30.2 °F 24.3 °F 28.4 °F 93% 29.91 in 10.0 mi East 5.8 mph - N/A   Overcast
12:33 AM 30.2 °F 24.3 °F 26.6 °F 86% 29.91 in 10.0 mi East 5.8 mph - N/A   Mostly Cloudy
12:53 AM 30.2 °F 23.4 °F 26.6 °F 86% 29.90 in 10.0 mi East 6.9 mph - N/A   Mostly Cloudy
1:12 AM 30.2 °F 22.6 °F 26.6 °F 86% 29.90 in 10.0 mi East 8.1 mph - N/A   Overcast
1:33 AM 32.0 °F 24.8 °F 26.6 °F 80% 29.90 in 10.0 mi East 8.1 mph - N/A   Mostly Cloudy
1:53 AM 32.0 °F 24.2 °F 26.6 °F 80% 29.89 in 10.0 mi East 9.2 mph - N/A   Mostly Cloudy
2:12 AM 32.0 °F 23.6 °F 26.6 °F 80% 29.87 in 10.0 mi East 10.4 mph - N/A   Overcast
2:33 AM 32.0 °F 23.6 °F 26.6 °F 80% 29.86 in 10.0 mi East 10.4 mph - N/A   Overcast
2:53 AM 32.0 °F 23.6 °F 26.6 °F 80% 29.86 in 10.0 mi East 10.4 mph - N/A   Overcast
3:12 AM 32.0 °F 23.0 °F 26.6 °F 80% 29.85 in 10.0 mi East 11.5 mph - N/A   Overcast
3:33 AM 32.0 °F 22.5 °F 26.6 °F 80% 29.85 in 10.0 mi East 12.7 mph - N/A   Overcast
3:53 AM 32.0 °F 23.0 °F 28.4 °F 87% 29.85 in 4.0 mi East 11.5 mph - N/A Snow Light Snow
4:12 AM 32.0 °F 23.0 °F 26.6 °F 80% 29.85 in 10.0 mi East 11.5 mph - N/A   Overcast
4:33 AM 32.0 °F 23.6 °F 26.6 °F 80% 29.84 in 10.0 mi East 10.4 mph 16.1 mph N/A Snow Light Snow
4:53 AM 30.2 °F 20.8 °F 26.6 °F 86% 29.84 in 10.0 mi East 11.5 mph - N/A Snow Light Snow
5:12 AM 30.2 °F 19.8 °F 26.6 °F 86% 29.84 in 10.0 mi East 13.8 mph 18.4 mph N/A Snow Light Snow
5:33 AM 30.2 °F 18.9 °F 26.6 °F 86% 29.83 in 7.0 mi East 16.1 mph - N/A   Overcast
5:53 AM 30.2 °F 18.9 °F 26.6 °F 86% 29.82 in 4.0 mi East 16.1 mph - N/A Snow Light Snow
6:12 AM 30.2 °F 19.3 °F 26.6 °F 86% 29.82 in 3.0 mi East 15.0 mph 19.6 mph N/A Snow Light Snow
6:33 AM 30.2 °F 19.3 °F 26.6 °F 86% 29.82 in 7.0 mi East 15.0 mph 20.7 mph N/A   Overcast
6:53 AM 30.2 °F 18.5 °F 26.6 °F 86% 29.80 in 10.0 mi East 17.3 mph 21.9 mph N/A   Overcast
7:12 AM 30.2 °F 18.5 °F 26.6 °F 86% 29.80 in 10.0 mi East 17.3 mph - N/A   Overcast
7:33 AM 30.2 °F 18.1 °F 26.6 °F 86% 29.78 in 10.0 mi East 18.4 mph - N/A   Overcast
7:53 AM 30.2 °F 17.4 °F 26.6 °F 86% 29.76 in 10.0 mi East 20.7 mph 26.5 mph N/A   Overcast
8:12 AM 30.2 °F 18.1 °F 26.6 °F 86% 29.75 in 10.0 mi East 18.4 mph 27.6 mph N/A   Overcast
8:32 AM 30.2 °F 16.8 °F 28.4 °F 93% 29.74 in 7.0 mi East 23.0 mph 28.8 mph N/A   Overcast
8:53 AM 30.2 °F 18.1 °F 28.4 °F 93% 29.74 in 10.0 mi East 18.4 mph 27.6 mph N/A   Overcast
9:13 AM 30.2 °F 16.8 °F 28.4 °F 93% 29.72 in 10.0 mi East 23.0 mph - N/A   Overcast
9:33 AM 30.2 °F 17.4 °F 26.6 °F 86% 29.70 in 10.0 mi East 20.7 mph 29.9 mph N/A   Overcast
9:52 AM 32.0 °F 19.5 °F 26.6 °F 80% 29.69 in 10.0 mi East 21.9 mph 26.5 mph N/A   Overcast
10:13 AM 32.0 °F 20.1 °F 26.6 °F 80% 29.67 in 10.0 mi East 19.6 mph 27.6 mph N/A   Overcast
10:32 AM 32.0 °F 20.1 °F 26.6 °F 80% 29.67 in 10.0 mi East 19.6 mph 25.3 mph N/A   Overcast
10:53 AM 32.0 °F 19.5 °F 26.6 °F 80% 29.67 in 10.0 mi East 21.9 mph 26.5 mph N/A   Overcast
11:13 AM 32.0 °F 19.8 °F 28.4 °F 87% 29.66 in 10.0 mi East 20.7 mph 27.6 mph N/A   Overcast
11:33 AM 32.0 °F 19.5 °F 28.4 °F 87% 29.66 in 5.0 mi East 21.9 mph 28.8 mph N/A   Overcast
11:53 AM 32.0 °F 20.5 °F 30.2 °F 93% 29.66 in 3.0 mi East 18.4 mph 26.5 mph N/A   Overcast
12:12 PM 32.0 °F 20.8 °F 30.2 °F 93% 29.65 in 3.0 mi East 17.3 mph - N/A   Overcast
12:33 PM 33.8 °F 23.9 °F 32.0 °F 93% 29.64 in 7.0 mi East 15.0 mph 25.3 mph N/A   Overcast
12:53 PM 33.8 °F 24.8 °F 32.0 °F 93% 29.62 in 7.0 mi East 12.7 mph 18.4 mph N/A   Overcast
1:12 PM 33.8 °F 25.3 °F 32.0 °F 93% 29.61 in 5.0 mi East 11.5 mph 18.4 mph N/A   Overcast
1:33 PM 33.8 °F 26.4 °F 32.0 °F 93% 29.60 in 5.0 mi East 9.2 mph 17.3 mph N/A   Overcast
1:53 PM 33.8 °F 27.0 °F 32.0 °F 93% 29.58 in 4.0 mi East 8.1 mph - N/A   Overcast
2:12 PM 33.8 °F 26.4 °F 33.8 °F 100% 29.57 in 4.0 mi East 9.2 mph - N/A   Overcast
2:33 PM 33.8 °F 26.4 °F 33.8 °F 100% 29.56 in 5.0 mi East 9.2 mph - N/A   Overcast
3:13 PM 33.8 °F 27.0 °F 33.8 °F 100% 29.54 in 3.0 mi East 8.1 mph - N/A   Overcast
3:33 PM 33.8 °F 27.0 °F 33.8 °F 100% 29.52 in 2.5 mi East 8.1 mph - N/A   Overcast
3:52 PM 33.8 °F 27.0 °F 33.8 °F 100% 29.51 in 1.2 mi East 8.1 mph - N/A   Overcast
4:13 PM 33.8 °F 27.7 °F 33.8 °F 100% 29.48 in 2.0 mi East 6.9 mph - N/A   Overcast
4:33 PM 33.8 °F 28.6 °F 33.8 °F 100% 29.49 in 4.0 mi East 5.8 mph - N/A   Overcast
4:52 PM 33.8 °F 29.6 °F 33.8 °F 100% 29.51 in 7.0 mi East 4.6 mph - N/A   Overcast
5:13 PM 33.8 °F 29.6 °F 33.8 °F 100% 29.49 in 4.0 mi East 4.6 mph - N/A   Overcast
5:33 PM 33.8 °F 29.6 °F 33.8 °F 100% 29.48 in 7.0 mi East 4.6 mph - N/A   Overcast
5:52 PM 33.8 °F 29.6 °F 33.8 °F 100% 29.48 in 3.0 mi East 4.6 mph - N/A   Overcast
6:13 PM 33.8 °F 29.6 °F 33.8 °F 100% 29.47 in 2.5 mi East 4.6 mph - N/A   Overcast
6:32 PM 33.8 °F 29.6 °F 33.8 °F 100% 29.46 in 7.0 mi East 4.6 mph - N/A   Overcast
6:53 PM 33.8 °F 30.8 °F 33.8 °F 100% 29.47 in 10.0 mi East 3.5 mph - N/A   Overcast
7:13 PM 33.8 °F 30.8 °F 33.8 °F 100% 29.46 in 10.0 mi East 3.5 mph - N/A   Overcast
7:32 PM 33.8 °F 30.8 °F 33.8 °F 100% 29.46 in 10.0 mi East 3.5 mph - N/A   Overcast
7:53 PM 33.8 °F 30.8 °F 33.8 °F 100% 29.45 in 10.0 mi East 3.5 mph - N/A   Overcast
8:13 PM 33.8 °F 30.8 °F 33.8 °F 100% 29.46 in 5.0 mi East 3.5 mph - N/A   Overcast
8:32 PM 33.8 °F 30.8 °F 33.8 °F 100% 29.47 in 4.0 mi East 3.5 mph - N/A   Overcast
8:53 PM 33.8 °F - 33.8 °F 100% 29.47 in 4.0 mi Calm Calm - N/A   Overcast
9:13 PM 33.8 °F - 33.8 °F 100% 29.47 in 4.0 mi Calm Calm - N/A   Overcast
9:32 PM 33.8 °F - 33.8 °F 100% 29.48 in 3.0 mi Calm Calm - N/A   Overcast
9:53 PM 33.8 °F - 33.8 °F 100% 29.47 in 3.0 mi Calm Calm - N/A   Overcast
10:13 PM 33.8 °F - 33.8 °F 100% 29.47 in 3.0 mi Calm Calm - N/A   Overcast
10:32 PM 33.8 °F - 33.8 °F 100% 29.47 in 1.8 mi Calm Calm - N/A   Overcast
10:53 PM 33.8 °F - 33.8 °F 100% 29.46 in 4.0 mi Calm Calm - N/A   Overcast
11:13 PM 35.6 °F - 35.6 °F 100% 29.46 in 5.0 mi Calm Calm - N/A   Overcast
11:33 PM 35.6 °F - 35.6 °F 100% 29.46 in 10.0 mi Calm Calm - N/A   Overcast
11:53 PM 35.6 °F - 35.6 °F 100% 29.45 in 10.0 mi Calm Calm - N/A   Overcast